Miscellaneous Local Product
Issued by NWS Hastings, NE

Home | Current Version | Previous Version | Graphics & Text | Print | Product List | Glossary On
Versions: 1 2 3 4 5 6 7 8 9 10 11 12 13 14 15 16 17 18 19 20 21 22 23 24 25 26 27 28 29 30 31 32 33 34 35 36 37 38 39 40 41 42 43 44 45 46 47 48 49 50
000
AXUS43 KGID 100702
MISGRI

GID CWA HOURLY WEATHER ROUNDUP
NATIONAL WEATHER SERVICE HASTINGS NE
200 AM CDT THU JUL 10 2014

NOTE: "FAIR" INDICATES FEW OR NO CLOUDS BELOW 12,000 FEET WITH NO
SIGNIFICANT WEATHER AND/OR OBSTRUCTIONS TO VISIBILITY.

...SOUTH CENTRAL NEBRASKA...

CITY           SKY/WX    TMP DP  RH WIND       PRES   REMARKS
GRAND ISLAND   CLOUDY    66  62  87 S14G26    29.96F
HASTINGS       CLOUDY    66  61  84 S12G22    29.97F
KEARNEY        CLOUDY    66  61  82 S25G43    29.93F THUNDER
ORD            MOCLDY    63  60  90 SE8       29.95F
YORK           CLOUDY    66  61  82 SE6       30.00S
AURORA         CLOUDY    67  64  89 SE12      29.96F
LEXINGTON      CLOUDY    65  64  96 E33G46    29.95F
HOLDREGE       CLOUDY    65  62  87 E22       30.01S
HEBRON         CLOUDY    68  64  85 SE12      29.99F

...NEBRASKA PANHANDLE...

CITY           SKY/WX    TMP DP  RH WIND       PRES   REMARKS
CHADRON        CLEAR     63  59  87 SE3       29.95F
ALLIANCE       CLEAR     61  60  97 E6        29.96S
SCOTTSBLUFF    CLEAR     64  61  90 NE10      29.95R
SIDNEY         CLEAR     60  51  72 S8        29.98S

...WESTERN AND NORTH CENTRAL NEBRASKA...

CITY           SKY/WX    TMP DP  RH WIND       PRES   REMARKS
VALENTINE      CLEAR     59  58  96 E5        29.96F
AINSWORTH      MOCLDY    64  61  91 S12       29.97F
ONEILL         MOCLDY    63  59  88 E8        29.99S
BROKEN BOW     CLOUDY    65  62  90 CALM      29.95F
IMPERIAL       CLEAR     68  60  75 SE16      29.97R
NORTH PLATTE   MOCLDY    64  60  87 SE23G38   29.96F
MCCOOK         CLOUDY    65  63  93 E17       29.99R

...EASTERN NEBRASKA...

CITY           SKY/WX    TMP DP  RH WIND       PRES   REMARKS
NORFOLK        CLEAR     63  60  90 SE7       29.99F
SO SIOUX CITY  CLEAR     63  60  90 SE5       30.01F
TEKAMAH        CLEAR     63  60  90 E3        30.01F
ALBION         PTCLDY    62  61  97 E5        29.99F
OMAHA EPPLEY   MOCLDY    70  61  73 S9        30.02F
OFFUTT AFB     MOCLDY    68  67  96 S6        30.02F
MILLARD        MOCLDY    69  61  77 CALM      30.02F
LINCOLN        CLOUDY    68  62  81 E9        30.01F
NEBRASKA CITY  CLOUDY    66  63  91 S5        30.04S
BEATRICE       LGT RAIN  66  62  85 SE13G18   29.97F
FALLS CITY     CLOUDY    69  63  81 SE3       30.03F

...NORTHERN KANSAS...

CITY           SKY/WX    TMP DP  RH WIND       PRES   REMARKS
GOODLAND       PTCLDY    75  49  39 SW16G32   29.92F
HILL CITY      LGT RAIN  68  64  87 SE13      29.99R
NORTON         SUNNY     68  59  73 SE16G23   29.98R
PHILLIPSBURG   CLEAR     70  61  73 E18G25    29.98F
SMITH CENTER   PTCLDY    66  61  82 E21G26    30.00F
BELOIT         MOCLDY    70  61  73 E14G21    30.02S
HAYS           CLOUDY    66  63  88 E36G41    29.93F THUNDER VSB 1
RUSSELL        TSTM      68  65  90 SE29G35   29.98F VSB 1
CONCORDIA      MOCLDY    69  63  81 SE16G23   30.02F
SALINA         MOCLDY    72  62  71 S10       30.04R
TOPEKA         CLOUDY    72  63  73 E6        30.04F



USA.gov is the U.S. government's official web portal to all federal, state and local government web resources and services.